User: anonymous   Login
Location: Ostrava
(49.8330°N, 18.2830°E)
Time: 14:05:01
(UTC+02:00)
Language:

Lacrosse 5 - Orbit

View from above orbital plane
View from above orbital plane
View from above satellite
View from above satellite

Ground track
Ground track

The orbit data is extracted from the following two-line orbital elements,

1 28646U 05016A   15111.02409911 0.00000600  00000-0  14673-3 0    06
2 28646  57.0110 187.6348 0006000 108.8105 251.1895 14.52233846    07
Epoch (UTC): 21 April 2015 00:34:42
Eccentricity: 0.0006000
inclination: 57.0110°
perigee height: 714 km
apogee height: 722 km
right ascension of ascending node: 187.6348°
argument of perigee: 108.8105°
revolutions per day: 14.52233846
mean anomaly at epoch: 251.1895°
orbit number at epoch: 0

The dashed part of the orbit path shows where the satellite is in the earth's shadow,  

DLR